DW6455 Weather Reports


Display with metric or nautical units.
time (UTC)temp
F
wind
direction
speed
MPH
gust
MPH
rain 1hr
in
rain 24hr
in
rain mn
in
humidity
%
barometer
mb
20260905234520 49 338 5.0 12.0 0.00 0.01 0.00 1 1001.6
20260905233520 49 315 6.0 14.0 0.00 0.01 0.00 1 1001.5
20260905232520 49 338 3.0 10.0 0.00 0.01 0.00 1 1001.5
20260905231520 49 338 2.0 8.0 0.00 0.01 0.00 1 1001.3
20260905230520 49 0 2.0 11.0 0.00 0.01 0.00 1 1001.3
20260905225520 49 315 2.0 7.0 0.00 0.01 0.00 1 1001.3
20260905224520 49 0.0 3.0 0.00 0.01 0.00 1 1001.2
20260905223600 49 338 1.0 6.0 0.00 0.01 0.00 1 1001.1
20260905203520 50 0 3.0 13.0 0.00 0.01 0.01 18 1000.1
20260905202520 50 0 3.0 10.0 0.00 0.01 0.01 23 1000.0
20260905201520 50 338 3.0 9.0 0.00 0.01 0.01 25 999.9
20260905200520 50 338 4.0 11.0 0.00 0.01 0.01 24 999.8
20260905195520 50 315 5.0 13.0 0.00 0.01 0.01 23 999.8
20260905194520 50 338 4.0 9.0 0.00 0.01 0.01 25 999.7
20260905193520 51 0 5.0 15.0 0.00 0.01 0.01 24 999.6
20260905192520 51 338 5.0 10.0 0.00 0.01 0.01 19 999.6
20260905191521 51 315 5.0 15.0 0.00 0.01 0.01 14 999.5
20260905190520 51 338 2.0 8.0 0.00 0.01 0.01 10 999.5
20260905185520 51 338 3.0 9.0 0.00 0.01 0.01 10 999.4
20260905184520 51 293 3.0 10.0 0.00 0.01 0.01 9 999.3
20260905183520 52 315 4.0 10.0 0.00 0.01 0.01 4 999.2
20260905182541 52 338 3.0 8.0 0.00 0.01 0.01 6 999.2
20260905162520 53 338 4.0 10.0 0.00 0.01 0.01 10 997.6
20260905161520 53 338 6.0 12.0 0.00 0.01 0.01 18 997.6
20260905160520 54 338 4.0 10.0 0.00 0.01 0.01 26 997.3
20260905155520 55 0 3.0 8.0 0.00 0.01 0.01 33 997.2
20260905154520 56 0 7.0 14.0 0.00 0.01 0.01 45 997.1
20260905153520 57 338 5.0 12.0 0.00 0.01 0.01 58 997.1
20260905152520 58 315 5.0 18.0 0.00 0.01 0.01 63 996.9
20260905151520 58 293 1.0 3.0 0.00 0.01 0.01 67 996.8
20260905150520 59 315 4.0 9.0 0.00 0.01 0.01 71 996.7
20260905145520 59 315 1.0 7.0 0.00 0.01 0.01 64 996.6
20260905144520 59 315 1.0 7.0 0.00 0.01 0.01 66 996.5
20260905143520 59 315 4.0 10.0 0.00 0.01 0.01 70 996.5
20260905142520 59 315 3.0 11.0 0.00 0.01 0.01 71 996.3
20260905141520 60 293 4.0 11.0 0.00 0.01 0.01 71 996.1
20260905140520 60 270 3.0 10.0 0.00 0.01 0.01 71 996.0
20260905135520 59 293 1.0 4.0 0.00 0.01 0.01 70 995.9
20260905134520 59 315 1.0 7.0 0.00 0.01 0.01 69 995.9
20260905133520 59 270 1.0 9.0 0.00 0.01 0.01 64 995.8
20260905132520 59 270 4.0 8.0 0.00 0.01 0.01 64 995.8
20260905131520 59 315 1.0 3.0 0.00 0.01 0.01 61 995.8
20260905130520 59 315 1.0 4.0 0.00 0.01 0.01 61 995.9
20260905125520 59 315 2.0 6.0 0.00 0.01 0.01 63 995.9
20260905124520 59 315 1.0 3.0 0.00 0.01 0.01 54 995.8
20260905123520 59 293 1.0 4.0 0.00 0.01 0.01 52 995.7
20260905122540 59 248 3.0 10.0 0.00 0.01 0.01 59 995.5
20260905102521 60 270 3.0 9.0 0.00 0.01 0.01 73 995.0
20260905101520 59 315 3.0 9.0 0.00 0.01 0.01 71 994.9
20260905100520 59 270 3.0 9.0 0.00 0.01 0.01 71 994.8
20260905095520 59 293 3.0 7.0 0.00 0.01 0.01 70 994.8
20260905094520 58 315 2.0 11.0 0.00 0.01 0.01 67 994.7
20260905093520 57 293 1.0 7.0 0.00 0.01 0.01 62 994.7
20260905092520 57 293 1.0 5.0 0.00 0.01 0.01 59 994.7
20260905091520 57 293 1.0 4.0 0.00 0.01 0.01 50 994.6
20260905090520 57 293 1.0 5.0 0.00 0.01 0.01 54 994.6
20260905085521 57 293 3.0 9.0 0.00 0.01 0.01 44 994.4
20260905084520 57 293 2.0 7.0 0.00 0.01 0.01 36 994.5
20260905083520 57 0 2.0 5.0 0.00 0.01 0.01 1 994.4
20260905082520 56 270 1.0 6.0 0.00 0.01 0.01 1 994.4
20260905081520 56 0 1.0 5.0 0.00 0.01 0.01 1 994.3
20260905080520 55 338 1.0 6.0 0.00 0.01 0.01 1 994.3
20260905075520 56 0.0 3.0 0.00 0.01 0.01 1 994.3
20260905074520 56 0.0 3.0 0.00 0.01 0.01 1 994.3
20260905073520 55 0.0 0.0 0.00 0.01 0.01 1 994.3
20260905072540 54 90 1.0 3.0 0.00 0.01 0.01 1 994.2
20260905042520 41 0.0 0.0 0.00 0.01 0.01 1 994.1
20260905041520 41 0.0 0.0 0.00 0.01 0.01 1 994.2
20260905040520 41 0.0 0.0 0.00 0.01 0.01 1 994.1
20260905035521 41 0.0 0.0 0.00 0.01 0.01 1 994.1
20260905034521 41 0.0 0.0 0.00 0.01 0.01 1 994.1
20260905033521 41 0.0 0.0 0.00 0.01 0.01 1 994.2
20260905032520 41 0.0 0.0 0.00 0.01 0.01 1 994.2
20260905031520 41 0.0 0.0 0.00 0.01 0.01 1 994.2
20260905030520 41 0.0 2.0 0.00 0.01 0.01 1 994.2
20260905025520 41 0.0 0.0 0.00 0.01 0.01 1 994.1
20260905024521 41 0.0 0.0 0.00 0.01 0.01 1 994.2
20260905023520 41 0.0 0.0 0.00 0.01 0.01 1 994.3
20260905022520 41 0.0 0.0 0.00 0.01 0.01 1 994.2
20260905021521 41 0.0 0.0 0.00 0.01 0.01 1 994.2
20260905020520 40 0.0 0.0 0.00 0.01 0.01 1 994.2
20260905015520 40 0.0 0.0 0.00 0.01 0.01 1 994.1
20260905014521 40 0.0 0.0 0.01 0.01 0.01 1 994.1
20260905013520 40 0.0 0.0 0.01 0.01 0.01 1 994.1
20260905012520 39 0.0 0.0 0.01 0.01 0.01 1 994.1
20260905011520 39 0.0 0.0 0.01 0.01 0.01 1 994.1
20260905010521 40 0.0 0.0 0.01 0.01 0.01 1 994.0
20260905005521 40 0.0 0.0 0.01 0.01 0.01 1 994.0
20260905004520 40 0.0 3.0 0.00 0.00 0.00 1 994.1